| time (UTC) | temp F | wind direction | speed MPH | gust MPH | rain 1hr in | rain 24hr in | rain mn in | humidity % | barometer mb |
| 20260507082059 | 54 | 236 | 10.0 | 12.0 | 0.00 | 0.00 | 0.00 | 4 | 1017.4 |
| 20260507081059 | 54 | 237 | 11.0 | 11.0 | 0.00 | 0.00 | 0.00 | 4 | 1017.2 |
| 20260507080059 | 54 | 243 | 4.0 | 10.0 | 0.00 | 0.00 | 0.00 | 4 | 1017.0 |
| 20260507075059 | 54 | 233 | 13.0 | 13.0 | 0.00 | 0.00 | 0.00 | 4 | 1016.6 |
| 20260507074059 | 55 | 233 | 5.0 | 13.0 | 0.00 | 0.00 | 0.00 | 4 | 1016.4 |
| 20260507073059 | 55 | 249 | 11.0 | 12.0 | 0.00 | 0.00 | 0.00 | 4 | 1016.3 |
| 20260507072059 | 55 | 283 | 8.0 | 17.0 | 0.00 | 0.00 | 0.00 | 4 | 1016.2 |
| 20260507071059 | 56 | 216 | 10.0 | 14.0 | 0.00 | 0.00 | 0.00 | 4 | 1016.2 |
| 20260507070058 | 56 | 264 | 11.0 | 18.0 | 0.00 | 0.00 | 0.00 | 4 | 1016.0 |
| 20260507065058 | 56 | 254 | 9.0 | 23.0 | 0.00 | 0.00 | 0.00 | 4 | 1015.9 |
| 20260507064058 | 56 | 233 | 7.0 | 24.0 | 0.00 | 0.00 | 0.00 | 4 | 1015.7 |
| 20260507063058 | 57 | 224 | 19.0 | 21.0 | 0.00 | 0.00 | 0.00 | 4 | 1015.6 |
| 20260507062058 | 57 | 222 | 4.0 | 23.0 | 0.00 | 0.00 | 0.00 | 3 | 1015.4 |
| 20260507061058 | 57 | 233 | 23.0 | 23.0 | 0.00 | 0.00 | 0.00 | 3 | 1015.3 |
| 20260507060057 | 58 | 256 | 10.0 | 12.0 | 0.00 | 0.00 | 0.00 | 3 | 1015.0 |
| 20260507055057 | 58 | 275 | 13.0 | 13.0 | 0.00 | 0.00 | 0.00 | 3 | 1015.1 |
| 20260507054057 | 58 | 225 | 7.0 | 10.0 | 0.00 | 0.00 | 0.00 | 3 | 1015.2 |
| 20260507053057 | 58 | 246 | 11.0 | 22.0 | 0.00 | 0.00 | 0.00 | 3 | 1015.0 |
| 20260507052057 | 59 | 269 | 14.0 | 23.0 | 0.00 | 0.00 | 0.00 | 3 | 1014.8 |
| 20260507051057 | 59 | 170 | 9.0 | 23.0 | 0.00 | 0.00 | 0.00 | 3 | 1014.8 |
| 20260507050138 | 59 | 262 | 10.0 | 16.0 | 0.00 | 0.00 | 0.00 | 3 | 1014.8 |
| 20260507050057 | 59 | 262 | 10.0 | 16.0 | 0.00 | 0.00 | 0.00 | 3 | 1014.8 |
| 20260507045057 | 60 | 238 | 6.0 | 14.0 | 0.00 | 0.00 | 0.00 | 3 | 1014.6 |
| 20260507044057 | 60 | 228 | 4.0 | 5.0 | 0.00 | 0.00 | 0.00 | 3 | 1014.6 |
| 20260507043057 | 60 | 237 | 14.0 | 14.0 | 0.00 | 0.00 | 0.00 | 3 | 1014.4 |
| 20260507042057 | 60 | 250 | 12.0 | 22.0 | 0.00 | 0.00 | 0.00 | 3 | 1014.4 |
| 20260507041057 | 60 | 274 | 10.0 | 17.0 | 0.00 | 0.00 | 0.00 | 3 | 1013.9 |
| 20260507040056 | 61 | 262 | 8.0 | 21.0 | 0.00 | 0.00 | 0.00 | 3 | 1014.1 |
| 20260507035056 | 61 | 180 | 8.0 | 11.0 | 0.00 | 0.00 | 0.00 | 3 | 1013.9 |
| 20260507034056 | 61 | 278 | 4.0 | 10.0 | 0.00 | 0.00 | 0.00 | 3 | 1013.9 |
| 20260507033056 | 60 | 245 | 8.0 | 18.0 | 0.00 | 0.00 | 0.00 | 3 | 1014.0 |
| 20260507032056 | 61 | 189 | 5.0 | 17.0 | 0.00 | 0.00 | 0.00 | 2 | 1013.9 |
| 20260507031056 | 61 | 193 | 10.0 | 17.0 | 0.00 | 0.00 | 0.00 | 3 | 1013.8 |
| 20260507030056 | 60 | 229 | 12.0 | 15.0 | 0.00 | 0.00 | 0.00 | 3 | 1013.9 |
| 20260507025056 | 60 | 235 | 7.0 | 12.0 | 0.00 | 0.00 | 0.00 | 3 | 1014.0 |
| 20260507024056 | 61 | 239 | 7.0 | 13.0 | 0.00 | 0.00 | 0.00 | 3 | 1014.0 |
| 20260507023056 | 61 | 270 | 8.0 | 20.0 | 0.00 | 0.00 | 0.00 | 3 | 1013.9 |
| 20260507022056 | 61 | 253 | 12.0 | 24.0 | 0.00 | 0.00 | 0.00 | 3 | 1013.9 |
| 20260507021056 | 61 | 208 | 8.0 | 18.0 | 0.00 | 0.00 | 0.00 | 4 | 1013.9 |
| 20260507020056 | 61 | 206 | 8.0 | 16.0 | 0.00 | 0.00 | 0.00 | 5 | 1014.0 |
| 20260507015056 | 60 | 185 | 3.0 | 12.0 | 0.00 | 0.00 | 0.00 | 5 | 1014.1 |
| 20260507014056 | 59 | 225 | 9.0 | 14.0 | 0.00 | 0.00 | 0.00 | 5 | 1014.1 |
| 20260507013056 | 58 | 225 | 4.0 | 18.0 | 0.00 | 0.00 | 0.00 | 5 | 1014.2 |
| 20260507012056 | 58 | 265 | 8.0 | 16.0 | 0.00 | 0.00 | 0.00 | 5 | 1014.3 |
| 20260507011056 | 60 | 195 | 5.0 | 23.0 | 0.00 | 0.00 | 0.00 | 5 | 1014.5 |
| 20260507010056 | 62 | 229 | 9.0 | 10.0 | 0.00 | 0.00 | 0.00 | 5 | 1013.8 |
| 20260507005056 | 64 | 264 | 3.0 | 7.0 | 0.00 | 0.00 | 0.00 | 5 | 1013.8 |
| 20260507004056 | 62 | 242 | 10.0 | 10.0 | 0.00 | 0.00 | 0.00 | 6 | 1013.8 |
| 20260507003056 | 62 | 175 | 2.0 | 4.0 | 0.00 | 0.00 | 0.00 | 5 | 1013.8 |
| 20260507002056 | 63 | 241 | 6.0 | 6.0 | 0.00 | 0.00 | 0.00 | 5 | 1013.9 |
| 20260507001056 | 62 | 223 | 1.0 | 3.0 | 0.00 | 0.00 | 0.00 | 6 | 1013.8 |
| 20260507000056 | 62 | 293 | 1.0 | 10.0 | 0.00 | 0.00 | 0.00 | 5 | 1013.9 |
| 20260506235056 | 62 | 318 | 2.0 | 4.0 | 0.00 | 0.00 | 0.00 | 6 | 1013.9 |
| 20260506234056 | 61 | 254 | 2.0 | 7.0 | 0.00 | 0.00 | 0.00 | 6 | 1013.8 |
| 20260506233056 | 61 | 252 | 1.0 | 2.0 | 0.00 | 0.00 | 0.00 | 6 | 1013.8 |
| 20260506232056 | 61 | 301 | 2.0 | 2.0 | 0.00 | 0.00 | 0.00 | 6 | 1013.9 |
| 20260506231056 | 60 | 0 | 0.0 | 2.0 | 0.00 | 0.00 | 0.00 | 6 | 1013.8 |
| 20260506230056 | 60 | 264 | 4.0 | 16.0 | 0.00 | 0.00 | 0.00 | 6 | 1014.0 |
| 20260506225056 | 59 | 242 | 4.0 | 4.0 | 0.00 | 0.00 | 0.00 | 6 | 1013.9 |
| 20260506224056 | 59 | 266 | 2.0 | 2.0 | 0.00 | 0.00 | 0.00 | 6 | 1013.8 |
| 20260506223056 | 58 | 295 | 1.0 | 3.0 | 0.00 | 0.00 | 0.00 | 6 | 1013.8 |
| 20260506222056 | 57 | 240 | 2.0 | 4.0 | 0.00 | 0.00 | 0.00 | 7 | 1013.8 |
| 20260506221056 | 56 | 301 | 3.0 | 3.0 | 0.00 | 0.00 | 0.00 | 7 | 1013.9 |
| 20260506220056 | 55 | 302 | 3.0 | 3.0 | 0.00 | 0.00 | 0.00 | 7 | 1013.8 |
| 20260506215056 | 54 | 0 | 0.0 | 0.0 | 0.00 | 0.00 | 0.00 | 7 | 1013.7 |
| 20260506214056 | 53 | 0 | 0.0 | 3.0 | 0.00 | 0.00 | 0.00 | 7 | 1013.7 |
| 20260506213056 | 52 | 0 | 0.0 | 0.0 | 0.00 | 0.00 | 0.00 | 7 | 1013.6 |
| 20260506212056 | 52 | 0 | 0.0 | 0.0 | 0.00 | 0.00 | 0.00 | 7 | 1013.6 |
| 20260506211056 | 51 | 0 | 0.0 | 0.0 | 0.00 | 0.00 | 0.00 | 8 | 1013.7 |
| 20260506210056 | 50 | 0 | 0.0 | 0.0 | 0.00 | 0.00 | 0.00 | 8 | 1013.7 |
| 20260506205056 | 50 | 0 | 0.0 | 0.0 | 0.00 | 0.00 | 0.00 | 8 | 1013.6 |
| 20260506204056 | 51 | 0 | 0.0 | 3.0 | 0.00 | 0.00 | 0.00 | 8 | 1013.6 |
| 20260506203056 | 51 | 275 | 3.0 | 3.0 | 0.00 | 0.00 | 0.00 | 8 | 1013.6 |
| 20260506202056 | 51 | 0 | 0.0 | 0.0 | 0.00 | 0.00 | 0.00 | 8 | 1013.5 |
| 20260506201056 | 51 | 0 | 0.0 | 0.0 | 0.00 | 0.00 | 0.00 | 8 | 1013.6 |
| 20260506200056 | 51 | 0 | 0.0 | 0.0 | 0.00 | 0.00 | 0.00 | 8 | 1013.6 |
| 20260506195056 | 52 | 0 | 0.0 | 0.0 | 0.00 | 0.00 | 0.00 | 8 | 1013.7 |
| 20260506194055 | 52 | 0 | 0.0 | 0.0 | 0.00 | 0.00 | 0.00 | 8 | 1013.6 |
| 20260506193055 | 52 | 0 | 0.0 | 0.0 | 0.00 | 0.00 | 0.00 | 8 | 1013.5 |
| 20260506192055 | 52 | 0 | 0.0 | 0.0 | 0.00 | 0.00 | 0.00 | 8 | 1013.4 |
| 20260506191055 | 52 | 0 | 0.0 | 2.0 | 0.00 | 0.00 | 0.00 | 8 | 1013.3 |
| 20260506190055 | 52 | 0 | 0.0 | 0.0 | 0.00 | 0.00 | 0.00 | 8 | 1013.1 |
| 20260506185055 | 52 | 0 | 0.0 | 0.0 | 0.00 | 0.00 | 0.00 | 8 | 1012.9 |
| 20260506184055 | 52 | 0 | 0.0 | 0.0 | 0.00 | 0.00 | 0.00 | 8 | 1013.0 |
| 20260506183055 | 53 | 0 | 0.0 | 0.0 | 0.00 | 0.00 | 0.00 | 8 | 1013.0 |
| 20260506182055 | 53 | 0 | 0.0 | 0.0 | 0.00 | 0.00 | 0.00 | 8 | 1013.1 |
| 20260506181055 | 54 | 0 | 0.0 | 0.0 | 0.00 | 0.00 | 0.00 | 8 | 1012.9 |
| 20260506180055 | 54 | 272 | 1.0 | 4.0 | 0.00 | 0.00 | 0.00 | 8 | 1012.8 |
| 20260506175055 | 55 | 0 | 0.0 | 3.0 | 0.00 | 0.00 | 0.00 | 8 | 1012.8 |
| 20260506174055 | 54 | 303 | 2.0 | 4.0 | 0.00 | 0.00 | 0.00 | 8 | 1012.9 |
| 20260506173055 | 54 | 253 | 2.0 | 3.0 | 0.00 | 0.00 | 0.00 | 8 | 1013.1 |
| 20260506172055 | 54 | 250 | 3.0 | 4.0 | 0.00 | 0.00 | 0.00 | 8 | 1013.2 |
| 20260506171055 | 54 | 0 | 0.0 | 0.0 | 0.00 | 0.00 | 0.00 | 8 | 1013.0 |
| 20260506170055 | 55 | 0 | 0.0 | 0.0 | 0.00 | 0.00 | 0.00 | 8 | 1013.1 |
| 20260506165055 | 55 | 0 | 0.0 | 1.0 | 0.00 | 0.00 | 0.00 | 8 | 1013.2 |
| 20260506164055 | 56 | 0 | 0.0 | 0.0 | 0.00 | 0.00 | 0.00 | 8 | 1013.4 |
| 20260506163055 | 57 | 0 | 0.0 | 3.0 | 0.00 | 0.00 | 0.00 | 8 | 1013.4 |
| 20260506162055 | 57 | 0 | 0.0 | 3.0 | 0.00 | 0.00 | 0.00 | 8 | 1013.6 |
| 20260506161055 | 57 | 0 | 0.0 | 3.0 | 0.00 | 0.00 | 0.00 | 8 | 1013.7 |
| 20260506160055 | 57 | 249 | 1.0 | 2.0 | 0.00 | 0.00 | 0.00 | 8 | 1013.8 |
| 20260506155055 | 57 | 249 | 1.0 | 4.0 | 0.00 | 0.00 | 0.00 | 8 | 1013.8 |
| 20260506154055 | 58 | 264 | 2.0 | 4.0 | 0.00 | 0.00 | 0.00 | 8 | 1014.0 |
| 20260506153055 | 58 | 234 | 3.0 | 5.0 | 0.00 | 0.00 | 0.00 | 8 | 1014.0 |
| 20260506152055 | 58 | 272 | 4.0 | 5.0 | 0.00 | 0.00 | 0.00 | 8 | 1014.1 |
| 20260506151054 | 59 | 228 | 3.0 | 3.0 | 0.00 | 0.00 | 0.00 | 8 | 1014.1 |
| 20260506150054 | 59 | 243 | 4.0 | 5.0 | 0.00 | 0.00 | 0.00 | 8 | 1014.2 |
| 20260506145054 | 59 | 229 | 2.0 | 3.0 | 0.00 | 0.00 | 0.00 | 8 | 1014.2 |
| 20260506144053 | 59 | 0 | 0.0 | 0.0 | 0.00 | 0.00 | 0.00 | 8 | 1014.2 |
| 20260506143052 | 59 | 0 | 0.0 | 2.0 | 0.00 | 0.00 | 0.00 | 8 | 1014.4 |
| 20260506142052 | 60 | 210 | 3.0 | 3.0 | 0.00 | 0.00 | 0.00 | 8 | 1014.4 |
| 20260506141052 | 59 | 219 | 2.0 | 2.0 | 0.00 | 0.00 | 0.00 | 8 | 1014.3 |
| 20260506140052 | 59 | 228 | 2.0 | 2.0 | 0.00 | 0.00 | 0.00 | 8 | 1014.4 |
| 20260506135052 | 59 | 231 | 1.0 | 1.0 | 0.00 | 0.00 | 0.00 | 8 | 1014.4 |
| 20260506134052 | 59 | 0 | 0.0 | 2.0 | 0.00 | 0.00 | 0.00 | 8 | 1014.5 |
| 20260506133052 | 59 | 201 | 3.0 | 8.0 | 0.00 | 0.00 | 0.00 | 8 | 1014.6 |
| 20260506132052 | 59 | 238 | 2.0 | 2.0 | 0.00 | 0.00 | 0.00 | 8 | 1014.6 |
| 20260506131052 | 59 | 248 | 1.0 | 2.0 | 0.00 | 0.00 | 0.00 | 8 | 1014.8 |
| 20260506130052 | 58 | 289 | 3.0 | 4.0 | 0.00 | 0.00 | 0.00 | 8 | 1014.9 |
| 20260506125052 | 58 | 0 | 0.0 | 0.0 | 0.00 | 0.00 | 0.00 | 8 | 1015.0 |
| 20260506124052 | 58 | 0 | 0.0 | 0.0 | 0.00 | 0.00 | 0.00 | 8 | 1015.0 |
| 20260506123052 | 59 | 0 | 0.0 | 0.0 | 0.00 | 0.00 | 0.00 | 8 | 1015.3 |
| 20260506122052 | 59 | 0 | 0.0 | 0.0 | 0.00 | 0.00 | 0.00 | 8 | 1015.4 |
| 20260506121051 | 60 | 304 | 1.0 | 2.0 | 0.00 | 0.00 | 0.00 | 8 | 1015.6 |
| 20260506120050 | 60 | 0 | 0.0 | 0.0 | 0.00 | 0.00 | 0.00 | 8 | 1015.7 |
| 20260506115050 | 61 | 0 | 0.0 | 0.0 | 0.00 | 0.00 | 0.00 | 8 | 1015.9 |
| 20260506114050 | 61 | 0 | 0.0 | 0.0 | 0.00 | 0.00 | 0.00 | 8 | 1015.9 |
| 20260506113049 | 61 | 0 | 0.0 | 0.0 | 0.00 | 0.00 | 0.00 | 8 | 1015.9 |
| 20260506112049 | 61 | 304 | 2.0 | 2.0 | 0.00 | 0.00 | 0.00 | 8 | 1016.1 |
| 20260506111049 | 61 | 304 | 1.0 | 3.0 | 0.00 | 0.00 | 0.00 | 8 | 1016.2 |
| 20260506110049 | 61 | 305 | 2.0 | 3.0 | 0.00 | 0.00 | 0.00 | 8 | 1016.2 |
| 20260506105049 | 61 | 306 | 2.0 | 3.0 | 0.00 | 0.00 | 0.00 | 8 | 1016.2 |
| 20260506104049 | 61 | 307 | 2.0 | 4.0 | 0.00 | 0.00 | 0.00 | 8 | 1016.2 |
| 20260506103049 | 62 | 308 | 3.0 | 4.0 | 0.00 | 0.00 | 0.00 | 8 | 1016.1 |
| 20260506102049 | 62 | 310 | 2.0 | 3.0 | 0.00 | 0.00 | 0.00 | 8 | 1016.2 |
| 20260506101049 | 62 | 317 | 2.0 | 3.0 | 0.00 | 0.00 | 0.00 | 8 | 1016.3 |
| 20260506100049 | 63 | 320 | 2.0 | 4.0 | 0.00 | 0.00 | 0.00 | 8 | 1016.3 |
| 20260506095049 | 63 | 333 | 3.0 | 3.0 | 0.00 | 0.00 | 0.00 | 8 | 1016.2 |
| 20260506094049 | 63 | 339 | 1.0 | 4.0 | 0.00 | 0.00 | 0.00 | 8 | 1016.2 |
| 20260506093048 | 63 | 343 | 4.0 | 4.0 | 0.00 | 0.00 | 0.00 | 8 | 1016.3 |
| 20260506092048 | 63 | 11 | 2.0 | 2.0 | 0.00 | 0.00 | 0.00 | 8 | 1016.4 |
| 20260506091048 | 63 | 0 | 0.0 | 0.0 | 0.00 | 0.00 | 0.00 | 8 | 1016.3 |
| 20260506090048 | 63 | 0 | 0.0 | 0.0 | 0.00 | 0.00 | 0.00 | 8 | 1016.4 |
| 20260506085048 | 63 | 0 | 0.0 | 0.0 | 0.00 | 0.00 | 0.00 | 8 | 1016.4 |
| 20260506084048 | 63 | 0 | 0.0 | 0.0 | 0.00 | 0.00 | 0.00 | 8 | 1016.4 |
| 20260506083048 | 63 | 0 | 0.0 | 0.0 | 0.00 | 0.00 | 0.00 | 8 | 1016.4 |